Preview of NWS' New Version of Forecast
This preview is not operational and should not be used for support decisions.
Latest weather observations around

Atlanta, Fulton County Airport-Brown Field (KFTY)

Using English Units (Switch to International System of Units)
Date/ Time (EDT) Wind (mph) Vis. (mi) Weather Sky Cond. Temp (°F) Rel. Humidity Wind Chill (°F) Heat Index (°F) Pressure Precip. (in)
Air Dwpt 6 hour Altimeter (inHg) Sea level (inHg) 1 hr 3 hr 6 hr
Max Min
Jun 26 17:53 WSW 3 10 Clear CLR 80 69     69%   83 30.14 30.11      
Jun 26 17:42 Calm 10 Clear CLR 81 69     67%   84 30.14        
Jun 26 17:07 Calm 10 Clear CLR 81 68     65%   84 30.15        
Jun 26 16:53 Calm 10 Clear CLR 82 68     63%   85 30.15 30.12      
Jun 26 15:53 Calm 10 Clear CLR 87 61     42%   87 30.15 30.12      
Jun 26 14:53 ENE 5 10 Clear CLR 86 64     48%   87 30.14 30.11      
Jun 26 13:53 E 7 10 Clear CLR 86 67     53%   89 30.16 30.13      
Jun 26 12:53 N 3 10 Clear CLR 84 66     55%   86 30.19 30.16      
Jun 26 11:53 Calm 10 Clear CLR 82 68     63%   85 30.21 30.18      
Jun 26 10:53 NW 3 10 Clear CLR 81 68     65%   84 30.21 30.18      
Jun 26 09:53 WNW 6 10 Clear CLR 80 68     67%   83 30.22 30.19      
Jun 26 08:53 WSW 6 10 Clear CLR 77 68     74%   78 30.21 30.18      
Jun 26 07:53 Calm 10 Clear CLR 74 67     79%   75 30.19 30.16      
Jun 26 06:53 Calm 10 Clear CLR 68 66     93%     30.17 30.14      
Jun 26 05:53 Calm 10 Clear CLR 69 66     90%     30.16 30.13      
Jun 26 04:53 Calm 10 Clear CLR 72 67     84%   73 30.15 30.11      
Jun 26 03:53 Calm 10 Clear CLR 69 67     93%     30.14 30.11      
Jun 26 02:53 Calm 10 Clear CLR 71 67     87%   72 30.14 30.11      
Jun 26 01:53 Calm 10 Clear CLR 73 67     81%   74 30.13 30.1      
Jun 26 00:53 Calm 10 Clear CLR 74 68     82%   75 30.13 30.1      
Jun 25 23:53 Calm 10 Clear CLR 73 69     87%   74 30.13 30.1      
Jun 25 22:53 SSW 3 10 Clear CLR 78 69     74%   79 30.12 30.09      
Jun 25 21:53 Calm 10 Clear CLR 80 68     67%   83 30.09 30.06      
Jun 25 20:53 W 3 10 Clear CLR 80 67     64%   82 30.07 30.04      
Jun 25 19:53 W 5 10 Clear CLR 83 65     55%   85 30.06 30.03      
Jun 25 18:53 WNW 7 10 Clear CLR 84 64     51%   85 30.05 30.03      
Jun 25 17:53 WNW 9 10 Clear   85 62     46%   86 30.07 30.04      
Jun 25 16:53 WNW 8 10 Clear CLR 85 65     51%   87 30.07 30.04      
Jun 25 15:53 NNW 9 10 Mostly Clear FEW044 85 66     53%   87 30.08 30.05      
Jun 25 14:53 NW 8 10 Clear CLR 84 65     53%   86 30.09 30.06      
Jun 25 13:53 NNW 6 10 Mostly Clear FEW039 85 66     53%   87 30.09 30.06      
Jun 25 12:53 W 8 10 Mostly Cloudy BKN035 83 66     57%   85 30.1 30.07      
Jun 25 11:53 WSW 5 10 Mostly Cloudy BKN028 79 67     67%   80 30.1 30.07      
Jun 25 11:28 5 10 Mostly Cloudy BKN025 80 68     67%   83 30.1        
Jun 25 10:53 NW 7 10 Clear CLR 78 68     71%   79 30.09 30.06      
Jun 25 09:53 NW 6 10 Clear CLR 75 69     82%   76 30.09 30.06      
Jun 25 08:53 W 3 10 Clear CLR 73 68     84%   74 30.08 30.05      
Jun 25 07:53 W 3 10 Clear CLR 71 67     87%   72 30.06 30.04      
Jun 25 06:53 Calm 10 Clear CLR 68 66     93%     30.04 30.02      
Jun 25 05:53 Calm 10 Clear   68 66     93%     30.03 29.99      
Jun 25 04:53 SW 3 10 Partly Cloudy SCT042 69 67     93%     30.02 29.98      
Jun 25 03:53 SW 5 10 Clear CLR 69 67     93%     29.99 29.96      
Jun 25 02:53 SSW 5 10 Clear CLR 70 67     90%     29.98 29.95      
Jun 25 01:53 S 3 10 Clear CLR 71 68     90%   72 29.98 29.94     0
Jun 25 00:53 SSW 3 10 Clear CLR 71 69     93%   72 29.98 29.95      
Jun 24 23:53 SSW 5 10 Clear CLR 72 69     91%   73 29.98 29.95      
Jun 24 22:53 Calm 10 Clear CLR 71 69     93%   72 29.97 29.94   0  
Jun 24 21:53 SW 7 10 Clear CLR 71 69     93%   72 29.94 29.91 0    
Jun 24 20:53 SW 6 10 Clear   72 69     91%   73 29.95 29.92 0    
Jun 24 19:53 S 6 3 Light Rain and Fog/Mist FEW100 FEW120 72 69     91%   73 29.97 29.94 0   0
Jun 24 19:18 S 9 3 Rain and Fog/Mist FEW045 SCT080 OVC100 73 69     87%   74 29.97   0    
Jun 24 18:53   3 Thunderstorms and Heavy Rain and Fog/Mist FEW039 BKN047 BKN065 72 68     87%   73 29.98   0    
Jun 24 18:48   4 Thunderstorms and Rain SCT039 BKN050 BKN100 73 68     83%   74 29.97   0    
Jun 24 18:31 WSW 8 10 Clear   86 70     59%   91 29.92        
Jun 24 17:53 WSW 9 10 Clear   89 71     55%   95 29.89 29.86      
Jun 24 16:53 SW 8 10 Mostly Clear FEW039 88 71     57%   94 29.89 29.86      
Jun 24 15:53 SSW 14 10 Partly Cloudy FEW041 SCT055 89 71     55%   95 29.91 29.88      
Jun 24 14:53 S 10 10 Mostly Cloudy FEW037 SCT045 BKN070 88 70     55%   93 29.92 29.89      
Jun 24 13:53 SSW 13 10 Mostly Cloudy FEW035 BKN045 BKN055 86 70     59%   91 29.94 29.91      
Jun 24 12:53 SSW 9 10 Partly Cloudy SCT033 SCT041 85 70     61%   89 29.95 29.92      
Jun 24 11:53 SSW 11 10 Mostly Cloudy SCT028 BKN038 BKN047 83 71     67%   88 29.98 29.95      
Jun 24 11:07 SW 9 10 Partly Cloudy SCT025 SCT035 82 71     69%   86 30        
Jun 24 10:53 SW 9 10 Mostly Cloudy SCT017 BKN024 82 71     69%   86 30.01 29.97      
Jun 24 10:11 SW 10 10 Mostly Cloudy SCT017 BKN024 80 72     76%   84 30.01        
Jun 24 09:53 SW 9 10 Partly Cloudy FEW013 FEW017 SCT029 79 72     79%   82 30 29.97      
Jun 24 08:53 WSW 6 10 Partly Cloudy SCT017 76 72     88%   77 30 29.97      
Jun 24 08:23 WSW 5 10 Mostly Cloudy SCT008 BKN017 74 71     91%   75 30        
Jun 24 08:15 WSW 5 10 Partly Cloudy FEW008 SCT017 74 71     91%   75 30        
Jun 24 07:53 SSW 5 10 Clear CLR 73 71     94%   74 29.99 29.96      
Jun 24 06:53 Calm 10 Clear CLR 71 69     93%   72 29.98 29.95      
Jun 24 05:53 Calm 10 Clear CLR 71 69     93%   72 29.97 29.94      
Jun 24 04:53 Calm 10 Clear CLR 70 68     93%     29.97 29.94      
Jun 24 03:53 SSE 6 10 Clear CLR 73 70     90%   74 29.97 29.94      
Jun 24 02:53 Calm 7 Mostly Clear FEW008 71 69     93%   72 29.99 29.95      
Jun 24 01:53 Calm 8 Clear CLR 72 70     93%   73 29.99 29.96      
Jun 24 00:53 Calm 8 Clear CLR 73 71     94%   74 30 29.96      
Jun 23 23:53 Calm 10 Clear CLR 74 72     94%   75 30.01 29.98      
Jun 23 22:53 Calm 10 Clear CLR 76 73     91%   77 30.01 29.98      
Jun 23 21:53 Calm 10 Clear CLR 79 74     85%   83 30 29.97      
Jun 23 20:53 SW 3 10 Clear CLR 81 73     77%   86 30 29.97      
Jun 23 19:53 S 5 10 Clear CLR 83 71     67%   88 30.01 29.98     0
Jun 23 18:53 S 7 10 Clear CLR 82 72     72%   87 30 29.98      
Jun 23 17:53 SSW 5 10 Clear CLR 78 72     82%   79 30.02 29.99      
Jun 23 16:53 SW 7 5 Fog/Mist SCT029 BKN070 OVC095 75 71     88%   76 30.04 30.01 0 0  
Jun 23 16:51 SW 7 5 Fog/Mist SCT029 BKN070 OVC095 75 72     89%   77 30.04   0    
Jun 23 16:38 S 9 5 Heavy Rain SCT029 BKN070 OVC090 77 68     74%   78 30.05   0    
Jun 23 16:33 WSW 8 0.75 Heavy Rain SCT029 BKN075 BKN095 76 66     71%   77 30.07   0    
Jun 23 16:25   1.75 Thunderstorms and Heavy Rain FEW034 SCT042 BKN090 74 67     79%   75 30.07   0    
Jun 23 16:09 7 10 Thunderstorms FEW038 SCT080 BKN090 76 63     64%   76 30.05        
Jun 23 16:02 SSW 9 10 Mostly Cloudy BKN038 BKN080 75 64     69%   75 30.06        
Jun 23 15:53   10 Thunderstorms SCT037 BKN044 BKN055 76 64     67%   76 30.07 30.04      
Jun 23 15:50   10 Thunderstorms SCT037 BKN044 BKN055 77 64     65%   77 30.06        
Notice The following observation data may not be complete
Jun 23 15:33 SSE 18 10 Thunderstorms FEW038 SCT055 BKN085   72      %     30.05        
May 15 06:53 E 3 10 Mostly Clear FEW065 71 66     84%   72 30.03 29.99      
May 15 02:53 Calm 10 Clear CLR 75 64     69%   75 30 29.96      
May 15 00:53 3 10 Clear CLR 76 65     69%   76 30.01 29.97      
May 13 23:53 Calm 10 Clear CLR 69 65     87%     30.07 30.04      
May 12 16:53 NNW 8 10 Clear   89 59     36%   88 30.09 30.06      
May 12 10:53 NW 5 10 Clear CLR 82 62     51%   83 30.19 30.16      
May 12 00:53 Calm 10 Clear CLR 67 66     97%     30.12 30.09      
May 11 22:53 Calm 10 Clear CLR 71 67     87%   72 30.11 30.09      
Jun 12 03:53 Calm 10 Mostly Clear FEW029 74 71     91%   75 30.15 30.12      
Jun 12 02:53 SSE 5 10 Clear CLR 75 71     88%   76 30.16 30.13      
Jun 11 04:53 Calm 10 Partly Cloudy SCT065 64 63     96%     30.14 30.11      
Jun 09 03:53 Calm 10 Clear CLR 63 63     100%     29.9 29.87      
Jun 07 14:53 ENE 10 10 Mostly Cloudy FEW046 BKN060 80 61     52%   81 29.82 29.79      
Jun 07 12:53 ENE 7 10 Mostly Cloudy FEW047 BKN070 77 58     52%   77 29.83 29.8      
Jun 06 06:53 Calm 10 Partly Cloudy FEW080 SCT110 71 71     100%   73 29.81 29.79